Lexington, KY (40517)

4:04 PM EST on February 14, 2016 (GMT -0500)
Wilson Downing Rd | | Change Station
CLOSE
Current Station
Personal Weather Station
Location: Lexington, KY
Elevation: 935 ft
Nearby Weather Stations
Active Advisory: Winter Storm Warning Active Notice: Public Information Statement

Elev 935 ft 37.98 °N, 84.50 °W | Updated 2 minutes ago

Overcast
Overcast
21.1 °F
Feels Like 21 °F
N
1.7
Wind Variable Wind from North

Today
High -- | Low -- °F
--% Chance of Precip.
Yesterday
High -- | Low -- °F
Precip. -- in
Pressure 30.20 in
Visibility 3.0 miles
Clouds Mostly Cloudy 3700 ft
Overcast 4600 ft
Windchill 21 °F
Dew Point 14 °F
Humidity 73%
Rainfall Not available.
Snow Depth Not available.
7:29 AM 6:15 PM
Waxing Crescent, 45% visible
METAR KLEX 142054Z 11010KT 3SM -SN BKN037 OVC046 M07/M09 A3016 RMK AO2 PRESFR SLP227 P0002 60003 T10671094 58035
Pressure 30.20 in
Visibility 3.0 miles
Clouds Mostly Cloudy 3700 ft
Overcast 4600 ft
Windchill 21 °F
Dew Point 14 °F
Humidity 73%
Rainfall Not available.
Snow Depth Not available.
7:29 AM 6:15 PM
Waxing Crescent, 45% visible
METAR KLEX 142054Z 11010KT 3SM -SN BKN037 OVC046 M07/M09 A3016 RMK AO2 PRESFR SLP227 P0002 60003 T10671094 58035

10-Day Weather Forecast

Almanac

Astronomy

Feb. 14, 2016 Rise Set
Actual Time
Civil Twilight
Nautical Twilight
Astronomical Twilight
Moon
Length of Visible Light
Length of Day
Tomorrow will be .
, % of the Moon is Illuminated

Today's Extremes

State Highs State Lows

Community

WunderPhotos

Upload Photos

1,892,885 photos uploaded!

WunderBlog® & News

Nearby

Air Quality

  Air Quality AQ Index Pollutant
Not available.

Snow Depth

Station Depth Elevation

Earthquake Activity

City Distance Mag. Time & Date
Minimum magnitude displayed is 2.5.

Coastal Water Temperatures

Place Temperature

Stations

Nearby Weather Stations

Station Location Temp. Windchill Dew Point Humidity Wind Precip. Elev Updated Type
                   

Watches & Warnings

Winter Storm Warning
Issued: 10:45 AM CST Feb. 14, 2016 – National Weather Service

... Winter Storm Warning remains in effect until 10 am EST /9 am
CST/ Monday...

* accumulations... 3 to 5 inches... with locally higher amounts.

* Timing... moderate to occasionally heavy snow will spread from
west to east early this afternoon. Precipitation will taper to
drizzle this evening.

* Main impact... snowfall rates of 1 to 2 inches per hour will be
possible at times this afternoon. Travel will be hazardous as
even treated primary roads will become snow covered.

* Other impacts... there is a chance of a brief period of
freezing drizzle late Sunday night before transitioning to
drizzle or rain Monday morning.

Precautionary/preparedness actions...

A Winter Storm Warning for snow means severe winter weather
conditions are expected or occurring. Significant amounts of snow
are forecast that will make travel dangerous.